Погода в Новоягодном

Россия / Омская область     57°21′28″N   73°31′02″E
темп.,
°C
ветер,
м/с
пор.,
м/с
влажн.,
%
обл.,
%
осадки,
мм/ч
давл.,
гПа
погр.,
м
6 марта, сб
сб600:00−4юз4119197 0.9 1002463
03:00−4ю3897100 0.1 1000307
06:00−3ююз51096100 1.6 998742
09:00−3ю4996100 1.1 996587
12:00−2з7118999 1.8 997933
15:00−4з71186100 0.3 10001197
18:00−7зюз61188100 0.4 1004901
21:00−10зюз4129099 0.1 1006552
7 марта, вс
вс700:00−11зюз4119186 0.1 1008420
03:00−13юз3109477 0.0 1009283
06:00−15юз399687 0.0 1011231
09:00−15юз3109564 0.0 1012270
12:00−10юз379175 0.0 1013522
15:00−8юз358897 0.0 1014649
18:00−9ю249499 0.1 1013197
21:00−10юв3694100 0.0 1012211
8 марта, пн
пн800:00−9в41095100 0.6 1007391
03:00−8в51095100 2.1 1001471
06:00−1ю41298100 5.8 996696
09:000ююз71495100 1.2 9921010
12:00−8зсз81394100 3.3 993543
15:00−7зсз81486100 0.5 9991121
18:00−9з61188100 0.7 10051021
21:00−12з51191100 0.1 1010529
9 марта, вт
вт900:00−15зюз3795100 0.1 1013213
03:00−15ююз379599 0.0 1014224
06:00−17ююз379685 0.1 1015242
09:00−16ю389696 0.1 1015285
12:00−12ю489498 0.1 1014401
15:00−9ююв51093100 0.1 1012536
18:00−8ю51193100 1.0 1011860
21:00−7ю41294100 0.3 1009663
10 марта, ср
ср1000:00−6ю51194100 0.8 1007751
03:00−7ююз51294100 1.3 1004849
06:00−9юз41292100 1.8 1004584
09:00−8юз41094100 0.1 1006492
12:00−8з4684100 0.1 1008515
15:00−8з2487100 0.0 1009435
18:00−9сз1293100 0.0 100823
21:00−13ссз1294100 0.0 100820